Tracking 26321 objects as of 27-Nov-2022
HD Live streaming from Space Station
objects crossing your sky now

SXC3-214 (MIET-AIS)

Track SXC3-214 (MIET-AIS) now!
10-day predictions
SXC3-214 (MIET-AIS) is classified as:


NORAD ID: 53377
Int'l Code: 2022-096H
Perigee: 490.3 km
Apogee: 494.8 km
Inclination: 97.4 °
Period: 94.3 minutes
Semi major axis: 6863 km
RCS: Unknown
Launch date: August 9, 2022
Source: (TBD)
Launch site: TYURATAM MISSILE AND SPACE COMPLEX (TTMTR)

Uplink (MHz):
Downlink (MHz): 437.900
Beacon (MHz):
Mode: 2400bps GMSK USP
Call sign: RS28S
Status: Active

aabbcc
Your satellite tracking list
Your tracking list is empty




NASA's NSSDC Master Catalog

Two Line Element Set (TLE):
1 53377U 22096H   22331.52156455  .00008190  00000-0  31368-3 0  9990
2 53377  97.4293 232.2716 0003249 100.7402  24.5850 15.26794103 16803
Source of the keplerian elements: AFSPC